Bangor, ME

4:33 AM EDT on October 17, 2019 (GMT -0400)
Bangor International

Weather History for KBGR - September, 2019

Change the Weather History Date:

Friday, September 20, 2019

  Actual Average Record
Temperature  
Mean Temperature 59 °F 57 °F  
Max Temperature 77 °F 68 °F 88 °F (1948)
Min Temperature 41 °F 46 °F 27 °F (1929)
Degree Days  
Heating Degree Days 6 8  
Month to date heating degree days 143 106  
Since 1 July heating degree days 159 169  
Cooling Degree Days 0 0  
Month to date cooling degree days 4 21  
Year to date cooling degree days 326 315  
Growing Degree Days 10 (Base 50)    
Moisture  
Dew Point 51 °F    
Average Humidity 74    
Maximum Humidity 100    
Minimum Humidity 47    
Precipitation  
Precipitation 0.00 in 0.14 in 1.75 in (1987)
Month to date precipitation 1.19 2.40  
Year to date precipitation 37.40 28.65  
Snow  
Snow 0.00 in 0.00 in 0.00 in (2002)
Month to date snowfall 0.0 0.0  
Since 1 July snowfall 0.0 0.0  
Since 1 September snowfall 0.0 0.0  
Snow Depth 0.00 in    
Sea Level Pressure  
Sea Level Pressure 30.09 in    
Wind  
Wind Speed 3 mph (West)    
Max Wind Speed 12 mph    
Max Gust Speed 16 mph    
Visibility 10 miles    
Events Fog    
T = Trace of Precipitation, MM = Missing Value Source: NWS Daily Summary

Daily Weather History Graph

Daily Weather History Graph

Search for Another Location

Airport or City:

Astronomy

Sep. 20, 2019 Rise Set
Actual Time 6:19 AM EDT 6:37 PM EDT
Civil Twilight 5:50 AM EDT 7:06 PM EDT
Nautical Twilight 5:15 AM EDT 7:40 PM EDT
Astronomical Twilight 4:40 AM EDT 8:15 PM EDT
Moon 10:09 PM EDT (9/20) 12:35 PM EDT (9/20)
Length of Visible Light 13h 15m
Length of Day
12h 17m
Waning Gibbous, 65% of the Moon is Illuminated
Sep 20
Waning Gibbous
Sep 21
Last Quarter
Sep 28
New
Oct 5
First Quarter
Oct 13
Full

Hourly Weather History & Observations

Time (EDT) Temp. Dew Point Humidity Pressure Visibility Wind Dir Wind Speed Gust Speed Precip Events Conditions
12:53 AM 43.0 °F 42.1 °F 97% 30.18 in 10.0 mi Calm Calm - N/A   Clear
1:53 AM 44.1 °F 43.0 °F 96% 30.17 in 10.0 mi Calm Calm - N/A   Clear
2:53 AM 44.1 °F 42.1 °F 93% 30.17 in 10.0 mi Calm Calm - N/A   Clear
3:53 AM 43.0 °F 42.1 °F 97% 30.16 in 10.0 mi Calm Calm - N/A   Clear
4:53 AM 43.0 °F 41.0 °F 93% 30.14 in 10.0 mi Calm Calm - N/A   Clear
5:53 AM 43.0 °F 42.1 °F 97% 30.14 in 10.0 mi Calm Calm - N/A Fog Patches of Fog
6:53 AM 44.1 °F 43.0 °F 96% 30.14 in 10.0 mi Calm Calm - N/A Fog Patches of Fog
7:53 AM 50.0 °F 46.0 °F 86% 30.15 in 10.0 mi Calm Calm - N/A   Partly Cloudy
8:53 AM 55.0 °F 48.0 °F 77% 30.14 in 10.0 mi SW 3.5 mph - N/A   Partly Cloudy
9:53 AM 64.9 °F 50.0 °F 58% 30.13 in 10.0 mi West 9.2 mph - N/A   Partly Cloudy
10:53 AM 69.1 °F 52.0 °F 54% 30.12 in 10.0 mi West 6.9 mph - N/A   Partly Cloudy
11:53 AM 72.0 °F 54.0 °F 53% 30.09 in 10.0 mi WNW 10.4 mph - N/A   Scattered Clouds
12:53 PM 72.0 °F 55.0 °F 55% 30.07 in 10.0 mi West 5.8 mph - N/A   Mostly Cloudy
1:53 PM 75.9 °F 55.9 °F 50% 30.04 in 10.0 mi WNW 9.2 mph - N/A   Mostly Cloudy
2:53 PM 77.0 °F 57.9 °F 52% 30.02 in 9.0 mi Variable 4.6 mph - N/A   Partly Cloudy
3:53 PM 77.0 °F 55.9 °F 48% 30.00 in 9.0 mi West 9.2 mph - N/A   Partly Cloudy
4:53 PM 77.0 °F 55.9 °F 48% 29.99 in 10.0 mi Variable 6.9 mph - N/A   Partly Cloudy
5:53 PM 73.9 °F 55.9 °F 53% 30.00 in 10.0 mi West 5.8 mph - N/A   Partly Cloudy
6:53 PM 68.0 °F 59.0 °F 73% 30.01 in 10.0 mi Calm Calm - N/A   Partly Cloudy
7:53 PM 70.0 °F 57.0 °F 63% 30.02 in 10.0 mi West 5.8 mph - N/A   Scattered Clouds
8:53 PM 66.9 °F 57.0 °F 70% 30.02 in 10.0 mi WNW 5.8 mph - N/A   Scattered Clouds
9:53 PM 66.0 °F 55.0 °F 68% 30.04 in 10.0 mi NW 5.8 mph - N/A   Scattered Clouds
10:53 PM 62.1 °F 55.0 °F 78% 30.05 in 10.0 mi West 3.5 mph - N/A   Scattered Clouds
11:53 PM 64.9 °F 55.0 °F 70% 30.05 in 10.0 mi West 5.8 mph - N/A   Mostly Cloudy